Regional Weather Roundup
Issued by NWS Goodland, KS

Home | Current Version | Previous Version | Graphics & Text | Print | Product List | Glossary On
Versions: 1 2 3 4 5 6 7 8 9 10 11 12 13 14 15 16 17 18 19 20 21 22 23 24 25 26 27 28 29 30 31 32 33 34 35 36 37 38 39 40 41 42 43 44 45 46 47 48 49 50
808
ASUS43 KGLD 200108
RWRGLD

GOODLAND FORECAST AREA HOURLY WEATHER ROUNDUP
NATIONAL WEATHER SERVICE GOODLAND KS
700 PM MDT SAT MAY 19 2018

...OFFICIAL OBSERVATIONS...

CITY           SKY/WX    TMP DP  RH WIND       PRES   REMARKS
GOODLAND KS    LGT RAIN  48  47  96 N20G33    30.10R
HILL CITY KS   CLOUDY    53  53 100 N14       30.02R FOG
IMPERIAL NEB   LGT RAIN  47  47 100 N14G23    30.12S
MCCOOK NEB     CLOUDY    50  49  96 N10       30.09R FOG
AKRON CO       CLOUDY    43  42  97 N21G29    30.19R
BURLINGTON CO  CLOUDY    48  43  82 N20G31    30.14R
LIMON CO       CLOUDY    46  41  82 N16       30.19R
$$

...UNOFFICIAL OBSERVATIONS...

CITY           SKY/WX    TMP DP  RH WIND       PRES   REMARKS
NORTON KS      RAIN      50  48  93 N12       30.04
SHARON SPRINGS   N/A     53  46  78 MISG        N/A
KIT CARSON CO    N/A     49  42  77 MISG        N/A
YUMA CO        CLOUDY    43  41  93 N15G22    30.17R
$$




USA.gov is the U.S. government's official web portal to all federal, state and local government web resources and services.